Time,TemperatureF,DewpointF,PressureIn,WindDirection,WindDirectionDegrees,WindSpeedMPH,WindSpeedGustMPH,Humidity,HourlyPrecipIn,Conditions,Clouds,dailyrainin,SoftwareType,DateUTC
2013-06-21 00:02:00,79.3,74.5,29.93,North,-999,-999.0,-999.0,85,-99.99,,,-99.99,meteohub,2013-06-21 05:02:00,
2013-06-21 00:07:00,79.3,74.5,29.93,North,-999,-999.0,-999.0,85,-99.99,,,-99.99,meteohub,2013-06-21 05:07:00,
2013-06-21 00:12:00,79.3,74.1,29.93,North,-999,-999.0,-999.0,84,-99.99,,,-99.99,meteohub,2013-06-21 05:12:00,
2013-06-21 00:17:00,79.5,74.3,29.93,North,-999,-999.0,-999.0,84,-99.99,,,-99.99,meteohub,2013-06-21 05:17:00,
2013-06-21 00:22:00,79.5,74.3,29.93,North,-999,-999.0,-999.0,84,-99.99,,,-99.99,meteohub,2013-06-21 05:22:00,
2013-06-21 00:27:00,79.5,74.3,29.92,North,-999,-999.0,-999.0,84,-99.99,,,-99.99,meteohub,2013-06-21 05:27:00,
2013-06-21 00:32:00,79.5,73.9,29.92,North,-999,-999.0,-999.0,83,-99.99,,,-99.99,meteohub,2013-06-21 05:32:00,
2013-06-21 00:37:00,79.5,73.9,29.93,North,-999,-999.0,-999.0,83,-99.99,,,-99.99,meteohub,2013-06-21 05:37:00,
2013-06-21 00:42:00,79.5,73.9,29.92,North,-999,-999.0,-999.0,83,-99.99,,,-99.99,meteohub,2013-06-21 05:42:00,
2013-06-21 00:47:00,79.3,73.8,29.93,North,-999,-999.0,-999.0,83,-99.99,,,-99.99,meteohub,2013-06-21 05:47:00,
2013-06-21 00:52:00,79.5,73.9,29.92,North,-999,-999.0,-999.0,83,-99.99,,,-99.99,meteohub,2013-06-21 05:52:00,
2013-06-21 00:57:00,79.3,73.8,29.92,North,-999,-999.0,-999.0,83,-99.99,,,-99.99,meteohub,2013-06-21 05:57:00,
2013-06-21 01:02:00,79.3,74.1,29.92,North,-999,-999.0,-999.0,84,-99.99,,,-99.99,meteohub,2013-06-21 06:02:00,
2013-06-21 01:07:00,79.3,73.8,29.92,North,-999,-999.0,-999.0,83,-99.99,,,-99.99,meteohub,2013-06-21 06:07:00,
2013-06-21 01:12:00,79.3,73.8,29.92,North,-999,-999.0,-999.0,83,-99.99,,,-99.99,meteohub,2013-06-21 06:12:00,
2013-06-21 01:17:00,79.2,73.9,29.92,North,-999,-999.0,-999.0,84,-99.99,,,-99.99,meteohub,2013-06-21 06:17:00,
2013-06-21 01:22:00,78.6,73.4,29.92,North,-999,-999.0,-999.0,84,-99.99,,,-99.99,meteohub,2013-06-21 06:22:00,
2013-06-21 01:27:00,79.0,73.8,29.92,North,-999,-999.0,-999.0,84,-99.99,,,-99.99,meteohub,2013-06-21 06:27:00,
2013-06-21 01:32:00,78.4,73.2,29.92,North,-999,-999.0,-999.0,84,-99.99,,,-99.99,meteohub,2013-06-21 06:32:00,
2013-06-21 01:37:00,79.0,74.1,29.92,North,-999,-999.0,-999.0,85,-99.99,,,-99.99,meteohub,2013-06-21 06:37:00,
2013-06-21 01:42:00,78.3,73.8,29.92,North,-999,-999.0,-999.0,86,-99.99,,,-99.99,meteohub,2013-06-21 06:42:00,
2013-06-21 01:47:00,78.3,73.8,29.92,North,-999,-999.0,-999.0,86,-99.99,,,-99.99,meteohub,2013-06-21 06:47:00,
2013-06-21 01:52:00,78.1,73.9,29.92,North,-999,-999.0,-999.0,87,-99.99,,,-99.99,meteohub,2013-06-21 06:52:00,
2013-06-21 01:57:00,77.9,73.8,29.92,North,-999,-999.0,-999.0,87,-99.99,,,-99.99,meteohub,2013-06-21 06:57:00,
2013-06-21 02:02:00,77.9,73.8,29.92,North,-999,-999.0,-999.0,87,-99.99,,,-99.99,meteohub,2013-06-21 07:02:00,
2013-06-21 02:07:00,77.5,73.4,29.92,North,-999,-999.0,-999.0,87,-99.99,,,-99.99,meteohub,2013-06-21 07:07:00,
2013-06-21 02:12:00,77.4,73.2,29.91,North,-999,-999.0,-999.0,87,-99.99,,,-99.99,meteohub,2013-06-21 07:12:00,
2013-06-21 02:17:00,77.5,73.8,29.91,North,-999,-999.0,-999.0,88,-99.99,,,-99.99,meteohub,2013-06-21 07:17:00,
2013-06-21 02:22:00,77.5,74.1,29.91,North,-999,-999.0,-999.0,89,-99.99,,,-99.99,meteohub,2013-06-21 07:22:00,
2013-06-21 02:27:00,77.5,73.8,29.91,North,-999,-999.0,-999.0,88,-99.99,,,-99.99,meteohub,2013-06-21 07:27:00,
2013-06-21 02:32:00,77.4,73.9,29.90,North,-999,-999.0,-999.0,89,-99.99,,,-99.99,meteohub,2013-06-21 07:32:00,
2013-06-21 02:37:00,77.0,73.6,29.91,North,-999,-999.0,-999.0,89,-99.99,,,-99.99,meteohub,2013-06-21 07:37:00,
2013-06-21 02:42:00,77.0,73.6,29.90,North,-999,-999.0,-999.0,89,-99.99,,,-99.99,meteohub,2013-06-21 07:42:00,
2013-06-21 02:47:00,77.2,73.8,29.90,North,-999,-999.0,-999.0,89,-99.99,,,-99.99,meteohub,2013-06-21 07:47:00,
2013-06-21 02:52:00,77.2,73.8,29.91,North,-999,-999.0,-999.0,89,-99.99,,,-99.99,meteohub,2013-06-21 07:52:00,
2013-06-21 02:57:00,77.0,73.8,29.91,North,-999,-999.0,-999.0,90,-99.99,,,-99.99,meteohub,2013-06-21 07:57:00,
2013-06-21 03:02:00,76.8,73.6,29.91,North,-999,-999.0,-999.0,90,-99.99,,,-99.99,meteohub,2013-06-21 08:02:00,
2013-06-21 03:07:00,76.8,73.6,29.91,North,-999,-999.0,-999.0,90,-99.99,,,-99.99,meteohub,2013-06-21 08:07:00,
2013-06-21 03:12:00,76.8,73.6,29.91,North,-999,-999.0,-999.0,90,-99.99,,,-99.99,meteohub,2013-06-21 08:12:00,
2013-06-21 03:17:00,76.8,73.6,29.91,North,-999,-999.0,-999.0,90,-99.99,,,-99.99,meteohub,2013-06-21 08:17:00,
2013-06-21 03:22:00,76.8,73.6,29.91,North,-999,-999.0,-999.0,90,-99.99,,,-99.99,meteohub,2013-06-21 08:22:00,
2013-06-21 03:27:00,76.6,73.4,29.91,North,-999,-999.0,-999.0,90,-99.99,,,-99.99,meteohub,2013-06-21 08:27:00,
2013-06-21 03:32:00,76.6,73.4,29.90,North,-999,-999.0,-999.0,90,-99.99,,,-99.99,meteohub,2013-06-21 08:32:00,
2013-06-21 03:37:00,76.6,73.8,29.90,North,-999,-999.0,-999.0,91,-99.99,,,-99.99,meteohub,2013-06-21 08:37:00,
2013-06-21 03:42:00,76.5,73.6,29.90,North,-999,-999.0,-999.0,91,-99.99,,,-99.99,meteohub,2013-06-21 08:42:00,
2013-06-21 03:47:00,76.5,73.6,29.90,North,-999,-999.0,-999.0,91,-99.99,,,-99.99,meteohub,2013-06-21 08:47:00,
2013-06-21 03:52:00,76.5,73.6,29.90,North,-999,-999.0,-999.0,91,-99.99,,,-99.99,meteohub,2013-06-21 08:52:00,
2013-06-21 03:57:00,76.5,73.6,29.91,North,-999,-999.0,-999.0,91,-99.99,,,-99.99,meteohub,2013-06-21 08:57:00,
2013-06-21 04:02:00,76.5,73.6,29.90,North,-999,-999.0,-999.0,91,-99.99,,,-99.99,meteohub,2013-06-21 09:02:00,
2013-06-21 04:07:00,76.1,73.2,29.90,North,-999,-999.0,-999.0,91,-99.99,,,-99.99,meteohub,2013-06-21 09:07:00,
2013-06-21 04:12:00,76.3,73.4,29.91,North,-999,-999.0,-999.0,91,-99.99,,,-99.99,meteohub,2013-06-21 09:12:00,
2013-06-21 04:17:00,76.1,73.6,29.91,North,-999,-999.0,-999.0,92,-99.99,,,-99.99,meteohub,2013-06-21 09:17:00,
2013-06-21 04:22:00,75.7,73.2,29.90,North,-999,-999.0,-999.0,92,-99.99,,,-99.99,meteohub,2013-06-21 09:22:00,
2013-06-21 04:27:00,75.7,73.6,29.90,North,-999,-999.0,-999.0,93,-99.99,,,-99.99,meteohub,2013-06-21 09:27:00,
2013-06-21 04:32:00,76.1,73.6,29.90,North,-999,-999.0,-999.0,92,-99.99,,,-99.99,meteohub,2013-06-21 09:32:00,
2013-06-21 04:37:00,76.1,73.6,29.90,North,-999,-999.0,-999.0,92,-99.99,,,-99.99,meteohub,2013-06-21 09:37:00,
2013-06-21 04:42:00,76.1,73.6,29.91,North,-999,-999.0,-999.0,92,-99.99,,,-99.99,meteohub,2013-06-21 09:42:00,
2013-06-21 04:47:00,75.9,73.4,29.90,North,-999,-999.0,-999.0,92,-99.99,,,-99.99,meteohub,2013-06-21 09:47:00,
2013-06-21 04:52:00,75.9,73.8,29.90,North,-999,-999.0,-999.0,93,-99.99,,,-99.99,meteohub,2013-06-21 09:52:00,
2013-06-21 04:57:00,75.9,73.8,29.90,North,-999,-999.0,-999.0,93,-99.99,,,-99.99,meteohub,2013-06-21 09:57:00,
2013-06-21 05:02:00,75.7,73.6,29.90,North,-999,-999.0,-999.0,93,-99.99,,,-99.99,meteohub,2013-06-21 10:02:00,
2013-06-21 05:07:00,75.7,73.6,29.90,North,-999,-999.0,-999.0,93,-99.99,,,-99.99,meteohub,2013-06-21 10:07:00,
2013-06-21 05:12:00,75.6,73.4,29.90,North,-999,-999.0,-999.0,93,-99.99,,,-99.99,meteohub,2013-06-21 10:12:00,
2013-06-21 05:17:00,75.4,73.6,29.90,North,-999,-999.0,-999.0,94,-99.99,,,-99.99,meteohub,2013-06-21 10:17:00,
2013-06-21 05:22:00,75.4,73.6,29.90,North,-999,-999.0,-999.0,94,-99.99,,,-99.99,meteohub,2013-06-21 10:22:00,
2013-06-21 05:27:00,75.4,73.6,29.90,North,-999,-999.0,-999.0,94,-99.99,,,-99.99,meteohub,2013-06-21 10:27:00,
2013-06-21 05:32:00,75.4,73.8,29.89,North,-999,-999.0,-999.0,95,-99.99,,,-99.99,meteohub,2013-06-21 10:32:00,
2013-06-21 05:37:00,75.2,73.6,29.90,North,-999,-999.0,-999.0,95,-99.99,,,-99.99,meteohub,2013-06-21 10:37:00,
2013-06-21 05:42:00,75.2,73.6,29.90,North,-999,-999.0,-999.0,95,-99.99,,,-99.99,meteohub,2013-06-21 10:42:00,
2013-06-21 05:47:00,75.0,73.4,29.90,North,-999,-999.0,-999.0,95,-99.99,,,-99.99,meteohub,2013-06-21 10:47:00,
2013-06-21 05:52:00,75.2,73.9,29.90,North,-999,-999.0,-999.0,96,-99.99,,,-99.99,meteohub,2013-06-21 10:52:00,
2013-06-21 05:57:00,75.2,73.9,29.90,North,-999,-999.0,-999.0,96,-99.99,,,-99.99,meteohub,2013-06-21 10:57:00,
2013-06-21 06:02:00,75.0,73.8,29.90,North,-999,-999.0,-999.0,96,-99.99,,,-99.99,meteohub,2013-06-21 11:02:00,
2013-06-21 06:07:00,75.2,73.9,29.90,North,-999,-999.0,-999.0,96,-99.99,,,-99.99,meteohub,2013-06-21 11:07:00,
2013-06-21 06:12:00,75.2,73.9,29.90,North,-999,-999.0,-999.0,96,-99.99,,,-99.99,meteohub,2013-06-21 11:12:00,
2013-06-21 06:17:00,75.2,73.9,29.91,North,-999,-999.0,-999.0,96,-99.99,,,-99.99,meteohub,2013-06-21 11:17:00,
2013-06-21 06:22:00,75.4,74.1,29.90,North,-999,-999.0,-999.0,96,-99.99,,,-99.99,meteohub,2013-06-21 11:22:00,
2013-06-21 06:27:00,75.4,74.1,29.91,North,-999,-999.0,-999.0,96,-99.99,,,-99.99,meteohub,2013-06-21 11:27:00,
2013-06-21 06:32:00,75.4,74.1,29.91,North,-999,-999.0,-999.0,96,-99.99,,,-99.99,meteohub,2013-06-21 11:32:00,
2013-06-21 06:37:00,75.6,73.9,29.91,North,-999,-999.0,-999.0,95,-99.99,,,-99.99,meteohub,2013-06-21 11:37:00,
2013-06-21 06:42:00,75.6,73.9,29.91,North,-999,-999.0,-999.0,95,-99.99,,,-99.99,meteohub,2013-06-21 11:42:00,
2013-06-21 06:47:00,75.9,74.1,29.91,North,-999,-999.0,-999.0,94,-99.99,,,-99.99,meteohub,2013-06-21 11:47:00,
2013-06-21 06:52:00,75.6,73.8,29.92,North,-999,-999.0,-999.0,94,-99.99,,,-99.99,meteohub,2013-06-21 11:52:00,
2013-06-21 06:57:00,75.7,73.9,29.92,North,-999,-999.0,-999.0,94,-99.99,,,-99.99,meteohub,2013-06-21 11:57:00,
2013-06-21 07:02:00,75.9,74.3,29.91,North,-999,-999.0,-999.0,95,-99.99,,,-99.99,meteohub,2013-06-21 12:02:00,
2013-06-21 07:07:00,75.9,74.1,29.91,North,-999,-999.0,-999.0,94,-99.99,,,-99.99,meteohub,2013-06-21 12:07:00,
2013-06-21 07:12:00,76.1,74.3,29.92,North,-999,-999.0,-999.0,94,-99.99,,,-99.99,meteohub,2013-06-21 12:12:00,
2013-06-21 07:17:00,76.3,74.5,29.92,North,-999,-999.0,-999.0,94,-99.99,,,-99.99,meteohub,2013-06-21 12:17:00,
2013-06-21 07:22:00,76.6,74.5,29.92,North,-999,-999.0,-999.0,93,-99.99,,,-99.99,meteohub,2013-06-21 12:22:00,
2013-06-21 07:27:00,76.8,74.7,29.92,North,-999,-999.0,-999.0,93,-99.99,,,-99.99,meteohub,2013-06-21 12:27:00,
2013-06-21 07:32:00,77.4,74.5,29.91,North,-999,-999.0,-999.0,91,-99.99,,,-99.99,meteohub,2013-06-21 12:32:00,
2013-06-21 07:37:00,77.5,74.7,29.92,North,-999,-999.0,-999.0,91,-99.99,,,-99.99,meteohub,2013-06-21 12:37:00,
2013-06-21 07:44:00,78.1,74.5,29.91,North,-999,-999.0,-999.0,89,-99.99,,,-99.99,meteohub,2013-06-21 12:44:00,
2013-06-21 07:50:00,78.1,74.5,29.92,North,-999,-999.0,-999.0,89,-99.99,,,-99.99,meteohub,2013-06-21 12:50:00,
2013-06-21 07:56:00,78.6,74.5,29.91,North,-999,-999.0,-999.0,87,-99.99,,,-99.99,meteohub,2013-06-21 12:56:00,
2013-06-21 08:02:00,78.4,74.3,29.92,North,-999,-999.0,-999.0,87,-99.99,,,-99.99,meteohub,2013-06-21 13:02:00,
2013-06-21 08:07:00,79.0,74.8,29.92,North,-999,-999.0,-999.0,87,-99.99,,,-99.99,meteohub,2013-06-21 13:07:00,
2013-06-21 08:14:00,79.0,74.5,29.92,North,-999,-999.0,-999.0,86,-99.99,,,-99.99,meteohub,2013-06-21 13:14:00,
2013-06-21 08:20:00,78.8,74.3,29.92,North,-999,-999.0,-999.0,86,-99.99,,,-99.99,meteohub,2013-06-21 13:20:00,
2013-06-21 08:26:00,79.0,74.5,29.93,North,-999,-999.0,-999.0,86,-99.99,,,-99.99,meteohub,2013-06-21 13:26:00,
2013-06-21 08:32:00,79.0,74.5,29.93,North,-999,-999.0,-999.0,86,-99.99,,,-99.99,meteohub,2013-06-21 13:32:00,
2013-06-21 08:37:00,79.3,74.8,29.93,North,-999,-999.0,-999.0,86,-99.99,,,-99.99,meteohub,2013-06-21 13:37:00,
2013-06-21 08:42:00,79.9,74.7,29.92,North,-999,-999.0,-999.0,84,-99.99,,,-99.99,meteohub,2013-06-21 13:42:00,
2013-06-21 08:47:00,80.2,74.7,29.93,North,-999,-999.0,-999.0,83,-99.99,,,-99.99,meteohub,2013-06-21 13:47:00,
2013-06-21 08:52:00,80.1,74.1,29.93,North,-999,-999.0,-999.0,82,-99.99,,,-99.99,meteohub,2013-06-21 13:52:00,
2013-06-21 08:57:00,81.5,75.0,29.93,North,-999,-999.0,-999.0,81,-99.99,,,-99.99,meteohub,2013-06-21 13:57:00,
2013-06-21 09:02:00,82.2,74.7,29.93,North,-999,-999.0,-999.0,78,-99.99,,,-99.99,meteohub,2013-06-21 14:02:00,
2013-06-21 09:07:00,83.7,75.2,29.93,North,-999,-999.0,-999.0,76,-99.99,,,-99.99,meteohub,2013-06-21 14:07:00,
2013-06-21 09:15:00,84.4,74.8,29.93,North,-999,-999.0,-999.0,73,-99.99,,,-99.99,meteohub,2013-06-21 14:15:00,
2013-06-21 09:21:00,83.7,74.8,29.92,North,-999,-999.0,-999.0,75,-99.99,,,-99.99,meteohub,2013-06-21 14:21:00,
2013-06-21 09:27:00,83.3,74.1,29.93,North,-999,-999.0,-999.0,74,-99.99,,,-99.99,meteohub,2013-06-21 14:27:00,
2013-06-21 09:32:00,85.6,75.2,29.93,North,-999,-999.0,-999.0,71,-99.99,,,-99.99,meteohub,2013-06-21 14:32:00,
2013-06-21 09:37:00,85.8,75.4,29.93,North,-999,-999.0,-999.0,71,-99.99,,,-99.99,meteohub,2013-06-21 14:37:00,
2013-06-21 09:42:00,85.1,74.7,29.93,North,-999,-999.0,-999.0,71,-99.99,,,-99.99,meteohub,2013-06-21 14:42:00,
2013-06-21 09:47:00,84.2,74.1,29.94,North,-999,-999.0,-999.0,72,-99.99,,,-99.99,meteohub,2013-06-21 14:47:00,
2013-06-21 09:52:00,83.5,74.3,29.93,North,-999,-999.0,-999.0,74,-99.99,,,-99.99,meteohub,2013-06-21 14:52:00,
2013-06-21 09:57:00,83.3,74.5,29.94,North,-999,-999.0,-999.0,75,-99.99,,,-99.99,meteohub,2013-06-21 14:57:00,
2013-06-21 10:02:00,83.3,74.5,29.93,North,-999,-999.0,-999.0,75,-99.99,,,-99.99,meteohub,2013-06-21 15:02:00,
2013-06-21 10:07:00,84.0,74.8,29.94,North,-999,-999.0,-999.0,74,-99.99,,,-99.99,meteohub,2013-06-21 15:07:00,
2013-06-21 10:12:00,84.7,75.6,29.93,North,-999,-999.0,-999.0,74,-99.99,,,-99.99,meteohub,2013-06-21 15:12:00,
2013-06-21 10:17:00,85.6,75.2,29.93,North,-999,-999.0,-999.0,71,-99.99,,,-99.99,meteohub,2013-06-21 15:17:00,
2013-06-21 10:22:00,85.3,74.3,29.94,North,-999,-999.0,-999.0,70,-99.99,,,-99.99,meteohub,2013-06-21 15:22:00,
2013-06-21 10:27:00,85.1,74.7,29.93,North,-999,-999.0,-999.0,71,-99.99,,,-99.99,meteohub,2013-06-21 15:27:00,
2013-06-21 10:32:00,85.6,74.3,29.93,North,-999,-999.0,-999.0,69,-99.99,,,-99.99,meteohub,2013-06-21 15:32:00,
2013-06-21 10:37:00,85.5,73.8,29.93,North,-999,-999.0,-999.0,68,-99.99,,,-99.99,meteohub,2013-06-21 15:37:00,
2013-06-21 10:42:00,85.3,74.3,29.93,North,-999,-999.0,-999.0,70,-99.99,,,-99.99,meteohub,2013-06-21 15:42:00,
2013-06-21 10:47:00,86.9,74.7,29.93,North,-999,-999.0,-999.0,67,-99.99,,,-99.99,meteohub,2013-06-21 15:47:00,
2013-06-21 10:52:00,86.5,73.8,29.93,North,-999,-999.0,-999.0,66,-99.99,,,-99.99,meteohub,2013-06-21 15:52:00,
2013-06-21 10:57:00,85.8,73.9,29.93,North,-999,-999.0,-999.0,68,-99.99,,,-99.99,meteohub,2013-06-21 15:57:00,
2013-06-21 11:02:00,85.6,75.2,29.93,North,-999,-999.0,-999.0,71,-99.99,,,-99.99,meteohub,2013-06-21 16:02:00,
2013-06-21 11:07:00,86.9,75.6,29.93,North,-999,-999.0,-999.0,69,-99.99,,,-99.99,meteohub,2013-06-21 16:07:00,
2013-06-21 11:14:00,87.6,74.3,29.93,North,-999,-999.0,-999.0,65,-99.99,,,-99.99,meteohub,2013-06-21 16:14:00,
2013-06-21 11:20:00,89.6,74.8,29.93,North,-999,-999.0,-999.0,62,-99.99,,,-99.99,meteohub,2013-06-21 16:20:00,
2013-06-21 11:26:00,89.6,74.8,29.93,North,-999,-999.0,-999.0,62,-99.99,,,-99.99,meteohub,2013-06-21 16:26:00,
2013-06-21 11:32:00,89.4,75.6,29.93,North,-999,-999.0,-999.0,64,-99.99,,,-99.99,meteohub,2013-06-21 16:32:00,
2013-06-21 11:38:00,89.2,73.9,29.93,North,-999,-999.0,-999.0,61,-99.99,,,-99.99,meteohub,2013-06-21 16:38:00,
2013-06-21 11:44:00,89.1,75.2,29.93,North,-999,-999.0,-999.0,64,-99.99,,,-99.99,meteohub,2013-06-21 16:44:00,
2013-06-21 11:50:00,88.9,73.8,29.93,North,-999,-999.0,-999.0,61,-99.99,,,-99.99,meteohub,2013-06-21 16:50:00,
2013-06-21 11:56:00,89.6,74.3,29.92,North,-999,-999.0,-999.0,61,-99.99,,,-99.99,meteohub,2013-06-21 16:56:00,
2013-06-21 12:02:00,90.1,75.9,29.92,North,-999,-999.0,-999.0,63,-99.99,,,-99.99,meteohub,2013-06-21 17:02:00,
2013-06-21 12:07:00,90.9,76.1,29.92,North,-999,-999.0,-999.0,62,-99.99,,,-99.99,meteohub,2013-06-21 17:07:00,
2013-06-21 12:12:00,90.1,74.3,29.92,North,-999,-999.0,-999.0,60,-99.99,,,-99.99,meteohub,2013-06-21 17:12:00,
2013-06-21 12:17:00,89.1,74.8,29.92,North,-999,-999.0,-999.0,63,-99.99,,,-99.99,meteohub,2013-06-21 17:17:00,
2013-06-21 12:24:00,88.3,74.1,29.92,North,-999,-999.0,-999.0,63,-99.99,,,-99.99,meteohub,2013-06-21 17:24:00,
2013-06-21 12:30:00,88.3,74.1,29.92,North,-999,-999.0,-999.0,63,-99.99,,,-99.99,meteohub,2013-06-21 17:30:00,
2013-06-21 12:36:00,89.6,75.7,29.92,North,-999,-999.0,-999.0,64,-99.99,,,-99.99,meteohub,2013-06-21 17:36:00,
2013-06-21 12:42:00,91.2,75.9,29.92,North,-999,-999.0,-999.0,61,-99.99,,,-99.99,meteohub,2013-06-21 17:42:00,
2013-06-21 12:46:00,91.4,76.1,29.92,North,-999,-999.0,-999.0,61,-99.99,,,-99.99,meteohub,2013-06-21 17:46:00,
2013-06-21 12:47:00,91.4,76.1,29.91,North,-999,-999.0,-999.0,61,-99.99,,,-99.99,meteohub,2013-06-21 17:47:00,
2013-06-21 12:49:00,91.4,75.0,29.92,North,-999,-999.0,-999.0,59,-99.99,,,-99.99,meteohub,2013-06-21 17:49:00,
2013-06-21 12:55:00,91.8,75.9,29.91,North,-999,-999.0,-999.0,60,-99.99,,,-99.99,meteohub,2013-06-21 17:55:00,
2013-06-21 12:58:00,92.1,76.6,29.91,North,-999,-999.0,-999.0,61,-99.99,,,-99.99,meteohub,2013-06-21 17:58:00,
2013-06-21 13:04:00,92.1,76.3,29.91,North,-999,-999.0,-999.0,60,-99.99,,,-99.99,meteohub,2013-06-21 18:04:00,
2013-06-21 13:11:00,92.7,76.3,29.92,North,-999,-999.0,-999.0,59,-99.99,,,-99.99,meteohub,2013-06-21 18:11:00,
2013-06-21 13:17:00,92.8,76.5,29.91,North,-999,-999.0,-999.0,59,-99.99,,,-99.99,meteohub,2013-06-21 18:17:00,
2013-06-21 13:23:00,92.1,76.3,29.91,North,-999,-999.0,-999.0,60,-99.99,,,-99.99,meteohub,2013-06-21 18:23:00,
2013-06-21 13:27:00,91.9,76.1,29.91,North,-999,-999.0,-999.0,60,-99.99,,,-99.99,meteohub,2013-06-21 18:27:00,
2013-06-21 13:32:00,91.8,75.4,29.91,North,-999,-999.0,-999.0,59,-99.99,,,-99.99,meteohub,2013-06-21 18:32:00,
2013-06-21 13:35:00,92.1,76.3,29.91,North,-999,-999.0,-999.0,60,-99.99,,,-99.99,meteohub,2013-06-21 18:35:00,
2013-06-21 13:42:00,92.5,75.0,29.91,North,-999,-999.0,-999.0,57,-99.99,,,-99.99,meteohub,2013-06-21 18:42:00,
2013-06-21 13:47:00,92.1,75.7,29.91,North,-999,-999.0,-999.0,59,-99.99,,,-99.99,meteohub,2013-06-21 18:47:00,
2013-06-21 13:53:00,92.3,75.4,29.91,North,-999,-999.0,-999.0,58,-99.99,,,-99.99,meteohub,2013-06-21 18:53:00,
2013-06-21 13:56:00,92.3,75.4,29.91,North,-999,-999.0,-999.0,58,-99.99,,,-99.99,meteohub,2013-06-21 18:56:00,
2013-06-21 14:02:00,92.5,75.0,29.90,North,-999,-999.0,-999.0,57,-99.99,,,-99.99,meteohub,2013-06-21 19:02:00,
2013-06-21 14:07:00,91.9,75.6,29.91,North,-999,-999.0,-999.0,59,-99.99,,,-99.99,meteohub,2013-06-21 19:07:00,
2013-06-21 14:12:00,91.6,75.2,29.90,North,-999,-999.0,-999.0,59,-99.99,,,-99.99,meteohub,2013-06-21 19:12:00,
2013-06-21 14:18:00,91.6,74.7,29.91,North,-999,-999.0,-999.0,58,-99.99,,,-99.99,meteohub,2013-06-21 19:18:00,
2013-06-21 14:24:00,91.2,75.4,29.90,North,-999,-999.0,-999.0,60,-99.99,,,-99.99,meteohub,2013-06-21 19:24:00,
2013-06-21 14:30:00,91.2,75.4,29.90,North,-999,-999.0,-999.0,60,-99.99,,,-99.99,meteohub,2013-06-21 19:30:00,
2013-06-21 14:32:00,91.9,74.5,29.90,North,-999,-999.0,-999.0,57,-99.99,,,-99.99,meteohub,2013-06-21 19:32:00,
2013-06-21 14:37:00,92.1,75.2,29.90,North,-999,-999.0,-999.0,58,-99.99,,,-99.99,meteohub,2013-06-21 19:37:00,
2013-06-21 14:42:00,93.2,75.7,29.90,North,-999,-999.0,-999.0,57,-99.99,,,-99.99,meteohub,2013-06-21 19:42:00,
2013-06-21 14:47:00,93.4,74.8,29.90,North,-999,-999.0,-999.0,55,-99.99,,,-99.99,meteohub,2013-06-21 19:47:00,
2013-06-21 14:51:00,93.7,75.2,29.90,North,-999,-999.0,-999.0,55,-99.99,,,-99.99,meteohub,2013-06-21 19:51:00,
2013-06-21 14:57:00,94.3,75.0,29.90,North,-999,-999.0,-999.0,54,-99.99,,,-99.99,meteohub,2013-06-21 19:57:00,
2013-06-21 15:02:00,94.8,75.0,29.89,North,-999,-999.0,-999.0,53,-99.99,,,-99.99,meteohub,2013-06-21 20:02:00,
2013-06-21 15:07:00,94.8,75.0,29.89,North,-999,-999.0,-999.0,53,-99.99,,,-99.99,meteohub,2013-06-21 20:07:00,
2013-06-21 15:12:00,94.6,74.3,29.89,North,-999,-999.0,-999.0,52,-99.99,,,-99.99,meteohub,2013-06-21 20:12:00,
2013-06-21 15:17:00,94.8,74.5,29.89,North,-999,-999.0,-999.0,52,-99.99,,,-99.99,meteohub,2013-06-21 20:17:00,
2013-06-21 15:22:00,94.8,73.9,29.88,North,-999,-999.0,-999.0,51,-99.99,,,-99.99,meteohub,2013-06-21 20:22:00,
2013-06-21 15:27:00,95.2,73.0,29.88,North,-999,-999.0,-999.0,49,-99.99,,,-99.99,meteohub,2013-06-21 20:27:00,
2013-06-21 15:32:00,94.1,73.8,29.88,North,-999,-999.0,-999.0,52,-99.99,,,-99.99,meteohub,2013-06-21 20:32:00,
2013-06-21 15:37:00,93.7,72.9,29.88,North,-999,-999.0,-999.0,51,-99.99,,,-99.99,meteohub,2013-06-21 20:37:00,
2013-06-21 15:42:00,93.4,73.0,29.88,North,-999,-999.0,-999.0,52,-99.99,,,-99.99,meteohub,2013-06-21 20:42:00,
2013-06-21 15:49:00,93.9,72.5,29.88,North,-999,-999.0,-999.0,50,-99.99,,,-99.99,meteohub,2013-06-21 20:49:00,
2013-06-21 15:55:00,93.4,72.5,29.88,North,-999,-999.0,-999.0,51,-99.99,,,-99.99,meteohub,2013-06-21 20:55:00,
2013-06-21 16:01:00,93.7,72.9,29.89,North,-999,-999.0,-999.0,51,-99.99,,,-99.99,meteohub,2013-06-21 21:01:00,
2013-06-21 16:07:00,94.6,73.8,29.88,North,-999,-999.0,-999.0,51,-99.99,,,-99.99,meteohub,2013-06-21 21:07:00,
2013-06-21 16:12:00,93.7,72.9,29.88,North,-999,-999.0,-999.0,51,-99.99,,,-99.99,meteohub,2013-06-21 21:12:00,
2013-06-21 16:17:00,91.9,72.3,29.89,North,-999,-999.0,-999.0,53,-99.99,,,-99.99,meteohub,2013-06-21 21:17:00,
2013-06-21 16:22:00,91.2,72.9,29.89,North,-999,-999.0,-999.0,55,-99.99,,,-99.99,meteohub,2013-06-21 21:22:00,
2013-06-21 16:27:00,91.2,72.3,29.88,North,-999,-999.0,-999.0,54,-99.99,,,-99.99,meteohub,2013-06-21 21:27:00,
2013-06-21 16:32:00,90.9,72.0,29.88,North,-999,-999.0,-999.0,54,-99.99,,,-99.99,meteohub,2013-06-21 21:32:00,
2013-06-21 16:37:00,90.9,72.5,29.88,North,-999,-999.0,-999.0,55,-99.99,,,-99.99,meteohub,2013-06-21 21:37:00,
2013-06-21 16:42:00,90.5,71.6,29.88,North,-999,-999.0,-999.0,54,-99.99,,,-99.99,meteohub,2013-06-21 21:42:00,
2013-06-21 16:47:00,90.3,71.4,29.88,North,-999,-999.0,-999.0,54,-99.99,,,-99.99,meteohub,2013-06-21 21:47:00,
2013-06-21 16:53:00,89.4,69.4,29.88,North,-999,-999.0,-999.0,52,-99.99,,,-99.99,meteohub,2013-06-21 21:53:00,
2013-06-21 16:59:00,90.3,70.3,29.88,North,-999,-999.0,-999.0,52,-99.99,,,-99.99,meteohub,2013-06-21 21:59:00,
2013-06-21 17:05:00,90.1,70.7,29.88,North,-999,-999.0,-999.0,53,-99.99,,,-99.99,meteohub,2013-06-21 22:05:00,
2013-06-21 17:11:00,90.0,71.1,29.88,North,-999,-999.0,-999.0,54,-99.99,,,-99.99,meteohub,2013-06-21 22:11:00,
2013-06-21 17:17:00,90.1,71.2,29.88,North,-999,-999.0,-999.0,54,-99.99,,,-99.99,meteohub,2013-06-21 22:17:00,
2013-06-21 17:22:00,90.0,72.1,29.87,North,-999,-999.0,-999.0,56,-99.99,,,-99.99,meteohub,2013-06-21 22:22:00,
2013-06-21 17:27:00,89.8,72.0,29.88,North,-999,-999.0,-999.0,56,-99.99,,,-99.99,meteohub,2013-06-21 22:27:00,
2013-06-21 17:32:00,89.6,72.3,29.87,North,-999,-999.0,-999.0,57,-99.99,,,-99.99,meteohub,2013-06-21 22:32:00,
2013-06-21 17:37:00,90.0,72.7,29.87,North,-999,-999.0,-999.0,57,-99.99,,,-99.99,meteohub,2013-06-21 22:37:00,
2013-06-21 17:42:00,91.0,72.1,29.87,North,-999,-999.0,-999.0,54,-99.99,,,-99.99,meteohub,2013-06-21 22:42:00,
2013-06-21 17:47:00,91.8,72.1,29.87,North,-999,-999.0,-999.0,53,-99.99,,,-99.99,meteohub,2013-06-21 22:47:00,
2013-06-21 17:52:00,92.1,72.0,29.86,North,-999,-999.0,-999.0,52,-99.99,,,-99.99,meteohub,2013-06-21 22:52:00,
2013-06-21 17:57:00,91.6,72.0,29.86,North,-999,-999.0,-999.0,53,-99.99,,,-99.99,meteohub,2013-06-21 22:57:00,
2013-06-21 18:02:00,91.2,72.9,29.86,North,-999,-999.0,-999.0,55,-99.99,,,-99.99,meteohub,2013-06-21 23:02:00,
2013-06-21 18:07:00,91.0,72.7,29.86,North,-999,-999.0,-999.0,55,-99.99,,,-99.99,meteohub,2013-06-21 23:07:00,
2013-06-21 18:12:00,90.3,73.0,29.86,North,-999,-999.0,-999.0,57,-99.99,,,-99.99,meteohub,2013-06-21 23:12:00,
2013-06-21 18:17:00,89.8,73.0,29.87,North,-999,-999.0,-999.0,58,-99.99,,,-99.99,meteohub,2013-06-21 23:17:00,
2013-06-21 18:22:00,89.8,73.0,29.86,North,-999,-999.0,-999.0,58,-99.99,,,-99.99,meteohub,2013-06-21 23:22:00,
2013-06-21 18:27:00,89.8,72.5,29.87,North,-999,-999.0,-999.0,57,-99.99,,,-99.99,meteohub,2013-06-21 23:27:00,
2013-06-21 18:32:00,89.4,73.2,29.86,North,-999,-999.0,-999.0,59,-99.99,,,-99.99,meteohub,2013-06-21 23:32:00,
2013-06-21 18:37:00,88.7,72.5,29.86,North,-999,-999.0,-999.0,59,-99.99,,,-99.99,meteohub,2013-06-21 23:37:00,
2013-06-21 18:42:00,88.3,72.7,29.87,North,-999,-999.0,-999.0,60,-99.99,,,-99.99,meteohub,2013-06-21 23:42:00,
2013-06-21 18:47:00,88.2,72.5,29.86,North,-999,-999.0,-999.0,60,-99.99,,,-99.99,meteohub,2013-06-21 23:47:00,
2013-06-21 18:52:00,88.0,72.3,29.87,North,-999,-999.0,-999.0,60,-99.99,,,-99.99,meteohub,2013-06-21 23:52:00,
2013-06-21 18:57:00,88.0,72.3,29.87,North,-999,-999.0,-999.0,60,-99.99,,,-99.99,meteohub,2013-06-21 23:57:00,
2013-06-21 19:02:00,88.0,72.9,29.88,North,-999,-999.0,-999.0,61,-99.99,,,-99.99,meteohub,2013-06-22 00:02:00,
2013-06-21 19:07:00,88.0,72.9,29.87,North,-999,-999.0,-999.0,61,-99.99,,,-99.99,meteohub,2013-06-22 00:07:00,
2013-06-21 19:12:00,87.8,73.2,29.88,North,-999,-999.0,-999.0,62,-99.99,,,-99.99,meteohub,2013-06-22 00:12:00,
2013-06-21 19:17:00,87.6,73.0,29.88,North,-999,-999.0,-999.0,62,-99.99,,,-99.99,meteohub,2013-06-22 00:17:00,
2013-06-21 19:22:00,87.4,72.9,29.88,North,-999,-999.0,-999.0,62,-99.99,,,-99.99,meteohub,2013-06-22 00:22:00,
2013-06-21 19:27:00,87.4,72.9,29.87,North,-999,-999.0,-999.0,62,-99.99,,,-99.99,meteohub,2013-06-22 00:27:00,
2013-06-21 19:32:00,87.1,72.5,29.87,North,-999,-999.0,-999.0,62,-99.99,,,-99.99,meteohub,2013-06-22 00:32:00,
2013-06-21 19:37:00,86.9,73.2,29.87,North,-999,-999.0,-999.0,64,-99.99,,,-99.99,meteohub,2013-06-22 00:37:00,
2013-06-21 19:42:00,86.7,73.0,29.88,North,-999,-999.0,-999.0,64,-99.99,,,-99.99,meteohub,2013-06-22 00:42:00,
2013-06-21 19:47:00,86.5,72.9,29.88,North,-999,-999.0,-999.0,64,-99.99,,,-99.99,meteohub,2013-06-22 00:47:00,
2013-06-21 19:52:00,86.4,72.7,29.88,North,-999,-999.0,-999.0,64,-99.99,,,-99.99,meteohub,2013-06-22 00:52:00,
2013-06-21 19:57:00,86.2,72.5,29.88,North,-999,-999.0,-999.0,64,-99.99,,,-99.99,meteohub,2013-06-22 00:57:00,
2013-06-21 20:02:00,86.0,72.3,29.88,North,-999,-999.0,-999.0,64,-99.99,,,-99.99,meteohub,2013-06-22 01:02:00,
2013-06-21 20:07:00,85.6,72.1,29.88,North,-999,-999.0,-999.0,64,-99.99,,,-99.99,meteohub,2013-06-22 01:07:00,
2013-06-21 20:12:00,85.3,71.8,29.88,North,-999,-999.0,-999.0,64,-99.99,,,-99.99,meteohub,2013-06-22 01:12:00,
2013-06-21 20:17:00,85.1,72.0,29.87,North,-999,-999.0,-999.0,65,-99.99,,,-99.99,meteohub,2013-06-22 01:17:00,
2013-06-21 20:22:00,84.7,71.6,29.88,North,-999,-999.0,-999.0,65,-99.99,,,-99.99,meteohub,2013-06-22 01:22:00,
2013-06-21 20:27:00,84.6,71.4,29.88,North,-999,-999.0,-999.0,65,-99.99,,,-99.99,meteohub,2013-06-22 01:27:00,
2013-06-21 20:32:00,83.7,71.1,29.88,North,-999,-999.0,-999.0,66,-99.99,,,-99.99,meteohub,2013-06-22 01:32:00,
2013-06-21 20:37:00,83.8,71.8,29.88,North,-999,-999.0,-999.0,67,-99.99,,,-99.99,meteohub,2013-06-22 01:37:00,
2013-06-21 20:42:00,83.7,72.0,29.88,North,-999,-999.0,-999.0,68,-99.99,,,-99.99,meteohub,2013-06-22 01:42:00,
2013-06-21 20:47:00,83.5,71.8,29.88,North,-999,-999.0,-999.0,68,-99.99,,,-99.99,meteohub,2013-06-22 01:47:00,
2013-06-21 20:52:00,83.3,71.6,29.88,North,-999,-999.0,-999.0,68,-99.99,,,-99.99,meteohub,2013-06-22 01:52:00,
2013-06-21 20:57:00,83.1,71.4,29.88,North,-999,-999.0,-999.0,68,-99.99,,,-99.99,meteohub,2013-06-22 01:57:00,
2013-06-21 21:02:00,83.1,72.0,29.88,North,-999,-999.0,-999.0,69,-99.99,,,-99.99,meteohub,2013-06-22 02:02:00,
2013-06-21 21:07:00,82.8,71.6,29.88,North,-999,-999.0,-999.0,69,-99.99,,,-99.99,meteohub,2013-06-22 02:07:00,
2013-06-21 21:12:00,82.6,71.8,29.88,North,-999,-999.0,-999.0,70,-99.99,,,-99.99,meteohub,2013-06-22 02:12:00,
2013-06-21 21:17:00,81.7,71.4,29.88,North,-999,-999.0,-999.0,71,-99.99,,,-99.99,meteohub,2013-06-22 02:17:00,
2013-06-21 21:22:00,81.9,72.0,29.88,North,-999,-999.0,-999.0,72,-99.99,,,-99.99,meteohub,2013-06-22 02:22:00,
2013-06-21 21:27:00,81.9,72.0,29.87,North,-999,-999.0,-999.0,72,-99.99,,,-99.99,meteohub,2013-06-22 02:27:00,
2013-06-21 21:32:00,81.9,71.6,29.88,North,-999,-999.0,-999.0,71,-99.99,,,-99.99,meteohub,2013-06-22 02:32:00,
2013-06-21 21:37:00,81.9,71.6,29.87,North,-999,-999.0,-999.0,71,-99.99,,,-99.99,meteohub,2013-06-22 02:37:00,
2013-06-21 21:42:00,81.9,71.1,29.88,North,-999,-999.0,-999.0,70,-99.99,,,-99.99,meteohub,2013-06-22 02:42:00,
2013-06-21 21:47:00,81.7,70.9,29.87,North,-999,-999.0,-999.0,70,-99.99,,,-99.99,meteohub,2013-06-22 02:47:00,
2013-06-21 21:52:00,81.7,70.5,29.87,North,-999,-999.0,-999.0,69,-99.99,,,-99.99,meteohub,2013-06-22 02:52:00,
2013-06-21 21:57:00,81.5,70.3,29.87,North,-999,-999.0,-999.0,69,-99.99,,,-99.99,meteohub,2013-06-22 02:57:00,
2013-06-21 22:02:00,81.7,70.2,29.88,North,-999,-999.0,-999.0,68,-99.99,,,-99.99,meteohub,2013-06-22 03:02:00,
2013-06-21 22:07:00,81.5,70.0,29.88,North,-999,-999.0,-999.0,68,-99.99,,,-99.99,meteohub,2013-06-22 03:07:00,
2013-06-21 22:12:00,81.5,69.4,29.88,North,-999,-999.0,-999.0,67,-99.99,,,-99.99,meteohub,2013-06-22 03:12:00,
2013-06-21 22:17:00,81.3,69.3,29.88,North,-999,-999.0,-999.0,67,-99.99,,,-99.99,meteohub,2013-06-22 03:17:00,
2013-06-21 22:22:00,81.1,69.1,29.89,North,-999,-999.0,-999.0,67,-99.99,,,-99.99,meteohub,2013-06-22 03:22:00,
2013-06-21 22:27:00,81.1,69.1,29.89,North,-999,-999.0,-999.0,67,-99.99,,,-99.99,meteohub,2013-06-22 03:27:00,
2013-06-21 22:32:00,80.8,69.3,29.89,North,-999,-999.0,-999.0,68,-99.99,,,-99.99,meteohub,2013-06-22 03:32:00,
2013-06-21 22:37:00,80.4,69.3,29.89,North,-999,-999.0,-999.0,69,-99.99,,,-99.99,meteohub,2013-06-22 03:37:00,
2013-06-21 22:42:00,80.2,69.6,29.89,North,-999,-999.0,-999.0,70,-99.99,,,-99.99,meteohub,2013-06-22 03:42:00,
2013-06-21 22:47:00,79.9,69.6,29.89,North,-999,-999.0,-999.0,71,-99.99,,,-99.99,meteohub,2013-06-22 03:47:00,
2013-06-21 22:52:00,79.9,69.6,29.90,North,-999,-999.0,-999.0,71,-99.99,,,-99.99,meteohub,2013-06-22 03:52:00,
2013-06-21 22:57:00,79.5,69.6,29.90,North,-999,-999.0,-999.0,72,-99.99,,,-99.99,meteohub,2013-06-22 03:57:00,
2013-06-21 23:01:00,79.2,69.8,29.90,North,-999,-999.0,-999.0,73,-99.99,,,-99.99,meteohub,2013-06-22 04:01:00,
2013-06-21 23:04:00,79.0,70.0,29.91,North,-999,-999.0,-999.0,74,-99.99,,,-99.99,meteohub,2013-06-22 04:04:00,
2013-06-21 23:07:00,78.8,69.8,29.91,North,-999,-999.0,-999.0,74,-99.99,,,-99.99,meteohub,2013-06-22 04:07:00,
2013-06-21 23:10:00,78.4,69.8,29.91,North,-999,-999.0,-999.0,75,-99.99,,,-99.99,meteohub,2013-06-22 04:10:00,
2013-06-21 23:12:00,78.4,69.8,29.91,North,-999,-999.0,-999.0,75,-99.99,,,-99.99,meteohub,2013-06-22 04:12:00,
2013-06-21 23:17:00,78.1,70.3,29.91,North,-999,-999.0,-999.0,77,-99.99,,,-99.99,meteohub,2013-06-22 04:17:00,
2013-06-21 23:22:00,77.7,70.0,29.91,North,-999,-999.0,-999.0,77,-99.99,,,-99.99,meteohub,2013-06-22 04:22:00,
2013-06-21 23:27:00,77.5,70.2,29.91,North,-999,-999.0,-999.0,78,-99.99,,,-99.99,meteohub,2013-06-22 04:27:00,
2013-06-21 23:32:00,77.0,70.3,29.91,North,-999,-999.0,-999.0,80,-99.99,,,-99.99,meteohub,2013-06-22 04:32:00,
2013-06-21 23:37:00,76.8,70.5,29.92,North,-999,-999.0,-999.0,81,-99.99,,,-99.99,meteohub,2013-06-22 04:37:00,
2013-06-21 23:42:00,76.8,70.5,29.92,North,-999,-999.0,-999.0,81,-99.99,,,-99.99,meteohub,2013-06-22 04:42:00,
2013-06-21 23:47:00,76.5,70.5,29.92,North,-999,-999.0,-999.0,82,-99.99,,,-99.99,meteohub,2013-06-22 04:47:00,
2013-06-21 23:52:00,76.6,71.1,29.92,North,-999,-999.0,-999.0,83,-99.99,,,-99.99,meteohub,2013-06-22 04:52:00,
2013-06-21 23:57:00,76.5,70.9,29.91,North,-999,-999.0,-999.0,83,-99.99,,,-99.99,meteohub,2013-06-22 04:57:00,